Regional Weather Roundup
Issued by NWS

Home | Current Version | Previous Version | Graphics & Text | Print | Product List | Glossary On
Versions: 1 2 3 4 5 6 7 8 9 10 11 12 13 14 15 16 17 18 19 20 21 22 23 24 25 26 27 28 29 30 31 32 33 34 35 36 37 38 39 40 41 42 43 44 45 46 47 48 49 50
000
ASUS43 KDMX 200707
RWRIA

WEATHER ROUNDUP FOR IOWA
NATIONAL WEATHER SERVICE DES MOINES IA
200 AM CDT MON OCT 20 2014

NOTE: "FAIR" INDICATES FEW OR NO CLOUDS BELOW 12,000 FEET WITH NO
SIGNIFICANT WEATHER AND/OR OBSTRUCTIONS TO VISIBILITY.

* - THESE STATIONS ARE NOT NWS STATIONS...THUS NOT UNDER NWS
QUALITY CONTROL.  THEY ALSO DO NOT REPORT WEATHER SUCH
AS PRECIPITATION OR FOG.

IAZ001>003-012>014-020>022-031>034-043>046-200800-
   NORTHWEST IOWA

CITY           SKY/WX    TMP DP  RH WIND       PRES   REMARKS
CARROLL *      CLEAR     48  46  93 W7        29.95R
CHEROKEE *       N/A     46  43  87 NE3       29.98R
DENISON *      CLEAR     45  45 100 CALM      29.95R
LE MARS *      CLEAR     39  39 100 CALM      29.99R
ORANGE CITY *  CLEAR     55  39  54 N6        29.98R
SHELDON *      CLEAR     39  36  87 CALM      29.97R
SIOUX CITY       N/A     45  42  89 N6        29.98R
SPENCER          N/A     43  38  82 NW6       29.97R
STORM LAKE *   CLEAR     50  41  71 N9        29.98R
$$

IAZ055>058-069>071-079>083-090>094-200800-
   SOUTHWEST IOWA

CITY           SKY/WX    TMP DP  RH WIND       PRES   REMARKS
ATLANTIC *     PTCLDY    45  43  93 CALM      29.95R
AUDUBON *      CLEAR     46  39  76 CALM      29.97R
CLARINDA *     CLEAR     54  48  82 W5        29.98S
COUNCIL BLFS * CLEAR     54  50  87 SW7       29.96R
CRESTON *      CLEAR     50  46  87 W6        29.96R
HARLAN  *      PTCLDY    45  45 100 CALM      29.99R
LAMONI           N/A     54  47  77 W13       29.95F
RED OAK *      CLEAR     48  46  93 SW3       29.97R
SHENANDOAH *     N/A     48  46  93 SW6       29.98R
$$

IAZ047>049-059>061-072>074-084-200800-
   CENTRAL IOWA

CITY           SKY/WX    TMP DP  RH WIND       PRES   REMARKS
AMES             N/A     50  44  80 NW8       29.92R
ANKENY *       CLEAR     54  48  82 W8        29.92R
CHARITON *     CLEAR     52  46  82 W8        29.92F
DES MOINES       N/A     53  46  77 W6        29.92S
GRINNELL*        N/A     50  45  81 W7        29.90F
KNOXVILLE *    CLEAR     50  45  81 W8        29.90F
MARSHALLTOWN     N/A     48  44  86 W6        29.89R
PELLA *          N/A     54  46  76 W7        29.91F
PERRY *          N/A     48  46  93 NW6       29.94R
$$

IAZ004>006-015-016-023>025-035-036-200800-
   NORTH CENTRAL IOWA

CITY           SKY/WX    TMP DP  RH WIND       PRES   REMARKS
ALGONA *       CLEAR     50  41  71 NW7       29.95R
CLARION *      CLEAR     46  43  87 NW6       29.93R
ESTHERVILLE      N/A     43  38  82 NW8       29.95R
FORT DODGE *     N/A     52  39  62 N6        29.95R
MASON CITY       N/A     48  41  76 NW10      29.93R
FOREST CITY *  CLEAR     48  41  76 NW7       29.92R
IOWA FALLS *     N/A     46  43  87 NW8       29.92R
$$

IAZ007>011-017>019-026>030-037>042-050>054-066-200800-
   NORTHEAST IOWA

CITY           SKY/WX    TMP DP  RH WIND       PRES   REMARKS
CEDAR RAPIDS     N/A     49  45  86 W8        29.86F
CHARLES CITY * CLEAR     48  43  81 NW7       29.89R
CLINTON *        N/A     54  43  66 W10       29.87F
DECORAH *      CLEAR     50  43  76 CALM      29.84R
DUBUQUE          N/A     45  43  93 SW9       29.84F
MONTICELLO *   CLEAR     50  46  87 NW3       29.85F
OELWEIN *      CLEAR     46  45  93 NW9       29.87R
WATERLOO         N/A     50  45  83 NW7       29.87R
$$

IAZ064-065-067-068-078-200800-
   EAST CENTRAL IOWA

CITY           SKY/WX    TMP DP  RH WIND       PRES   REMARKS
DAVENPORT        N/A     51  42  71 SW12      29.86F
IOWA CITY        N/A     50  45  83 W9        29.88F
MT. PLEASANT *   N/A     46  43  87 SW7       29.90F
MUSCATINE *    CLEAR     54  45  71 SW13G21   29.87F
QUAD CITIES      N/A     52  43  71 W10       29.86F
$$

IAZ062-063-075>077-085>089-095>099-200800-
   SOUTHEAST IOWA

CITY           SKY/WX    TMP DP  RH WIND       PRES   REMARKS
BURLINGTON       N/A     53  46  77 SW9       29.89F
FAIRFIELD *    CLEAR     52  45  76 SW8       29.90F
FORT MADISON * CLEAR     54  48  82 SW10      29.91F
KEOKUK *       CLEAR     52  46  82 SW9       29.91F
OSKALOOSA *      N/A     52  46  82 W7        29.90F
CENTERVILLE *  CLEAR     52  48  87 SW9       29.94F
OTTUMWA          N/A     52  45  77 W8        29.90F
WASHINGTON *   CLEAR     50  46  87 SW9       29.88F
$$

ABBREVIATIONS USED IN REMARKS
   TC - TEMPERATURES IN CELSIUS
  WCI - WIND CHILL INDEX
   HX - HEAT INDEX
  VSB - VISIBILITY
$$




USA.gov is the U.S. government's official web portal to all federal, state and local government web resources and services.